STARLINK-4515 (53397 NORAD) Tracking and Keplerian Element Data

This shows tracking and keplerian element data for the satellite.

Feedback or suggestion? Click here.




ElementValue
Catalog53397
NameSTARLINK-4515
Epoch Orbit1661
Epoch Day324.79075381
Epoch Year2022
RAAN133.1332
Inclination53.2186
Eccentricity0.0002033
Argument of Perigee52.0241
Mean Anonmoly308.0934
Mean Motion15.08839482
Decay Rate-4.07E-06
L11 53397U 22097K 22324.79075381 -.00000407 00000+0 -74339-5 0 9993
L22 53397 53.2186 133.1332 0002033 52.0241 308.0934 15.08839482 16611



Live tracking and technical data element details for STARLINK-4515 (NORAD 53397). STARLINK-4515 can be tracked NOW for your location showing map with azimuth and elevation plus other details from your city location.







IsCatalogInMostPopularTable: catalog: 53397, numindb: 7
Update: records affected: 1



GetName: 53397 STARLINK-4515

Hit Count: updated at: Thu, 08 Dec 2022 10:36:30 GMT